| time (UTC) | temp C | wind direction | speed KPH | gust KPH | rain 1hr cm | rain 24hr cm | rain mn cm | humidity % | barometer mb |
| 20260504214003 | 23 | 193 | 8.0 | 24.1 | 0.00 | 0.00 | 0.00 | 36 | 1008.3 |
| 20260504213503 | 23 | 244 | 14.5 | 27.4 | 0.00 | 0.00 | 0.00 | 35 | 1008.3 |
| 20260504213009 | 23 | 184 | 9.7 | 27.4 | 0.00 | 0.00 | 0.00 | 35 | 1008.2 |
| 20260504212503 | 23 | 210 | 8.0 | 22.5 | 0.00 | 0.00 | 0.00 | 36 | 1008.2 |
| 20260504212003 | 23 | 226 | 9.7 | 25.7 | 0.00 | 0.00 | 0.00 | 35 | 1008.3 |
| 20260504211509 | 23 | 223 | 11.3 | 25.7 | 0.00 | 0.00 | 0.00 | 35 | 1008.1 |
| 20260504211004 | 23 | 243 | 11.3 | 25.7 | 0.00 | 0.00 | 0.00 | 35 | 1008.1 |
| 20260504210504 | 23 | 189 | 11.3 | 25.7 | 0.00 | 0.00 | 0.00 | 35 | 1008.1 |
| 20260504210016 | 23 | 218 | 12.9 | 24.1 | 0.00 | 0.00 | 0.00 | 35 | 1008.2 |
| 20260504205504 | 23 | 207 | 11.3 | 19.3 | 0.00 | 0.00 | 0.00 | 35 | 1008.1 |
| 20260504204004 | 23 | 173 | 6.4 | 20.9 | 0.00 | 0.00 | 0.00 | 34 | 1008.2 |
| 20260504203503 | 23 | 243 | 9.7 | 20.9 | 0.00 | 0.00 | 0.00 | 35 | 1008.4 |
| 20260504203006 | 23 | 223 | 9.7 | 19.3 | 0.00 | 0.00 | 0.00 | 35 | 1008.4 |
| 20260504202506 | 23 | 191 | 11.3 | 20.9 | 0.00 | 0.00 | 0.00 | 35 | 1008.5 |
| 20260504202004 | 23 | 200 | 9.7 | 20.9 | 0.00 | 0.00 | 0.00 | 35 | 1008.6 |
| 20260504201509 | 23 | 200 | 8.0 | 24.1 | 0.00 | 0.00 | 0.00 | 34 | 1008.7 |
| 20260504201003 | 23 | 172 | 8.0 | 25.7 | 0.00 | 0.00 | 0.00 | 35 | 1008.7 |
| 20260504200503 | 23 | 218 | 6.4 | 25.7 | 0.00 | 0.00 | 0.00 | 34 | 1008.8 |
| 20260504200016 | 23 | 248 | 11.3 | 22.5 | 0.00 | 0.00 | 0.00 | 35 | 1008.8 |
| 20260504195504 | 23 | 172 | 4.8 | 19.3 | 0.00 | 0.00 | 0.00 | 35 | 1008.9 |
| 20260504195007 | 23 | 221 | 6.4 | 20.9 | 0.00 | 0.00 | 0.00 | 35 | 1009.0 |
| 20260504194514 | 22 | 259 | 6.4 | 24.1 | 0.00 | 0.00 | 0.00 | 35 | 1009.1 |
| 20260504193509 | 22 | 238 | 14.5 | 24.1 | 0.00 | 0.00 | 0.00 | 35 | 1009.2 |
| 20260504193011 | 22 | 239 | 9.7 | 27.4 | 0.00 | 0.00 | 0.00 | 36 | 1009.3 |
| 20260504192505 | 22 | 217 | 16.1 | 27.4 | 0.00 | 0.00 | 0.00 | 35 | 1009.4 |
| 20260504192005 | 22 | 231 | 8.0 | 22.5 | 0.00 | 0.00 | 0.00 | 36 | 1009.5 |
| 20260504191512 | 22 | 238 | 12.9 | 19.3 | 0.00 | 0.00 | 0.00 | 35 | 1009.5 |
| 20260504191003 | 22 | 90 | 4.8 | 17.7 | 0.00 | 0.00 | 0.00 | 35 | 1009.6 |
| 20260504190506 | 22 | 207 | 11.3 | 22.5 | 0.00 | 0.00 | 0.00 | 35 | 1009.6 |
| 20260504190015 | 22 | 213 | 6.4 | 22.5 | 0.00 | 0.00 | 0.00 | 37 | 1009.6 |
| 20260504185503 | 22 | 215 | 8.0 | 24.1 | 0.00 | 0.00 | 0.00 | 37 | 1009.8 |
| 20260504185003 | 22 | 199 | 8.0 | 29.0 | 0.00 | 0.00 | 0.00 | 36 | 1009.8 |
| 20260504184525 | 22 | 169 | 9.7 | 29.0 | 0.00 | 0.00 | 0.00 | 35 | 1009.9 |
| 20260504184006 | 22 | 227 | 8.0 | 20.9 | 0.00 | 0.00 | 0.00 | 35 | 1010.0 |
| 20260504183506 | 22 | 274 | 9.7 | 19.3 | 0.00 | 0.00 | 0.00 | 35 | 1010.0 |
| 20260504183023 | 22 | 155 | 9.7 | 20.9 | 0.00 | 0.00 | 0.00 | 35 | 1010.1 |
| 20260504181512 | 21 | 218 | 11.3 | 20.9 | 0.00 | 0.00 | 0.00 | 37 | 1010.3 |
| 20260504181006 | 21 | 181 | 8.0 | 19.3 | 0.00 | 0.00 | 0.00 | 36 | 1010.3 |
| 20260504180507 | 21 | 217 | 9.7 | 20.9 | 0.00 | 0.00 | 0.00 | 36 | 1010.4 |
| 20260504180011 | 21 | 297 | 9.7 | 20.9 | 0.00 | 0.00 | 0.00 | 36 | 1010.6 |
| 20260504175502 | 21 | 251 | 8.0 | 20.9 | 0.00 | 0.00 | 0.00 | 36 | 1010.6 |
| 20260504175006 | 21 | 211 | 8.0 | 20.9 | 0.00 | 0.00 | 0.00 | 37 | 1010.7 |
| 20260504174516 | 21 | 141 | 11.3 | 20.9 | 0.00 | 0.00 | 0.00 | 36 | 1010.7 |
| 20260504174005 | 21 | 251 | 6.4 | 19.3 | 0.00 | 0.00 | 0.00 | 36 | 1010.8 |
| 20260504173510 | 21 | 169 | 8.0 | 19.3 | 0.00 | 0.00 | 0.00 | 35 | 1010.8 |
| 20260504173016 | 21 | 236 | 8.0 | 19.3 | 0.00 | 0.00 | 0.00 | 36 | 1010.9 |
| 20260504172507 | 21 | 186 | 9.7 | 19.3 | 0.00 | 0.00 | 0.00 | 35 | 1010.9 |
| 20260504172006 | 21 | 236 | 8.0 | 19.3 | 0.00 | 0.00 | 0.00 | 36 | 1011.0 |
| 20260504171513 | 21 | 231 | 4.8 | 19.3 | 0.00 | 0.00 | 0.00 | 36 | 1011.0 |
| 20260504151002 | 18 | 262 | 4.8 | 16.1 | 0.00 | 0.00 | 0.00 | 37 | 1013.0 |
| 20260504150510 | 17 | 242 | 6.4 | 17.7 | 0.00 | 0.00 | 0.00 | 38 | 1013.1 |
| 20260504141004 | 15 | 207 | 1.6 | 6.4 | 0.00 | 0.00 | 0.00 | 42 | 1013.6 |
| 20260504140502 | 15 | 264 | 1.6 | 8.0 | 0.00 | 0.00 | 0.00 | 44 | 1013.6 |
| 20260504130502 | 12 | 318 | 1.6 | 4.8 | 0.00 | 0.00 | 0.00 | 47 | 1014.1 |
| 20260504110503 | 8 | 214 | 1.6 | 6.4 | 0.00 | 0.00 | 0.00 | 58 | 1014.1 |
| 20260504100504 | 7 | 278 | 0.0 | 3.2 | 0.00 | 0.00 | 0.00 | 61 | 1014.4 |
| 20260504082007 | 7 | 166 | 1.6 | 3.2 | 0.00 | 0.00 | 0.00 | 59 | 1014.6 |
| 20260504081528 | 7 | 197 | 0.0 | 3.2 | 0.00 | 0.00 | 0.00 | 60 | 1014.6 |
| 20260504081003 | 7 | 237 | 0.0 | 1.6 | 0.00 | 0.00 | 0.00 | 59 | 1014.6 |
| 20260504080507 | 8 | 238 | 0.0 | 1.6 | 0.00 | 0.00 | 0.00 | 60 | 1014.6 |
| 20260504050507 | 10 | 243 | 0.0 | 8.0 | 0.00 | 0.00 | 0.00 | 52 | 1014.8 |
| 20260504050020 | 10 | 260 | 1.6 | 8.0 | 0.00 | 0.00 | 0.00 | 51 | 1014.8 |
| 20260504045506 | 10 | 285 | 3.2 | 8.0 | 0.00 | 0.00 | 0.00 | 51 | 1014.7 |
| 20260504045010 | 10 | 274 | 3.2 | 8.0 | 0.00 | 0.00 | 0.00 | 50 | 1014.8 |
| 20260504044525 | 10 | 272 | 6.4 | 8.0 | 0.00 | 0.00 | 0.00 | 50 | 1014.9 |
| 20260504044009 | 10 | 271 | 4.8 | 9.7 | 0.00 | 0.00 | 0.00 | 49 | 1014.8 |
| 20260504043508 | 10 | 266 | 4.8 | 9.7 | 0.00 | 0.00 | 0.00 | 49 | 1014.8 |
| 20260504043033 | 10 | 238 | 3.2 | 11.3 | 0.00 | 0.00 | 0.00 | 48 | 1014.7 |
| 20260504042509 | 10 | 269 | 4.8 | 11.3 | 0.00 | 0.00 | 0.00 | 48 | 1014.7 |
| 20260504042004 | 10 | 290 | 6.4 | 11.3 | 0.00 | 0.00 | 0.00 | 47 | 1014.7 |
| 20260504041512 | 10 | 269 | 4.8 | 9.7 | 0.00 | 0.00 | 0.00 | 48 | 1014.7 |
| 20260504041003 | 11 | 263 | 4.8 | 8.0 | 0.00 | 0.00 | 0.00 | 48 | 1014.7 |
| 20260504040507 | 11 | 254 | 4.8 | 8.0 | 0.00 | 0.00 | 0.00 | 49 | 1014.8 |
| 20260504040018 | 11 | 266 | 3.2 | 8.0 | 0.00 | 0.00 | 0.00 | 49 | 1014.7 |
| 20260504035507 | 11 | 253 | 3.2 | 6.4 | 0.00 | 0.00 | 0.00 | 49 | 1014.8 |
| 20260504035007 | 11 | 269 | 3.2 | 11.3 | 0.00 | 0.00 | 0.00 | 47 | 1014.7 |
| 20260504034522 | 11 | 245 | 4.8 | 11.3 | 0.00 | 0.00 | 0.00 | 46 | 1014.6 |
| 20260504034005 | 11 | 273 | 3.2 | 9.7 | 0.00 | 0.00 | 0.00 | 46 | 1014.6 |
| 20260504033507 | 11 | 269 | 6.4 | 11.3 | 0.00 | 0.00 | 0.00 | 46 | 1014.5 |
| 20260504033003 | 11 | 257 | 4.8 | 11.3 | 0.00 | 0.00 | 0.00 | 45 | 1014.5 |
| 20260504032503 | 11 | 266 | 4.8 | 9.7 | 0.00 | 0.00 | 0.00 | 45 | 1014.4 |
| 20260504032003 | 11 | 295 | 4.8 | 9.7 | 0.00 | 0.00 | 0.00 | 45 | 1014.4 |
| 20260504031511 | 11 | 259 | 3.2 | 9.7 | 0.00 | 0.00 | 0.00 | 45 | 1014.4 |
| 20260504031002 | 11 | 262 | 3.2 | 11.3 | 0.00 | 0.00 | 0.00 | 45 | 1014.4 |
| 20260504030503 | 11 | 276 | 4.8 | 11.3 | 0.00 | 0.00 | 0.00 | 45 | 1014.3 |
| 20260504030016 | 11 | 227 | 4.8 | 9.7 | 0.00 | 0.00 | 0.00 | 46 | 1014.3 |
| 20260504025504 | 11 | 271 | 4.8 | 8.0 | 0.00 | 0.00 | 0.00 | 47 | 1014.3 |
| 20260504025009 | 11 | 256 | 4.8 | 8.0 | 0.00 | 0.00 | 0.00 | 46 | 1014.3 |
| 20260504024518 | 11 | 272 | 3.2 | 6.4 | 0.00 | 0.00 | 0.00 | 46 | 1014.3 |
| 20260504024005 | 11 | 264 | 1.6 | 6.4 | 0.00 | 0.00 | 0.00 | 46 | 1014.3 |
| 20260504023505 | 11 | 279 | 3.2 | 6.4 | 0.00 | 0.00 | 0.00 | 45 | 1014.4 |
| 20260504023021 | 12 | 272 | 1.6 | 4.8 | 0.00 | 0.00 | 0.00 | 46 | 1014.4 |
| 20260504022508 | 12 | 270 | 1.6 | 4.8 | 0.00 | 0.00 | 0.00 | 46 | 1014.3 |
| 20260504022011 | 12 | 271 | 1.6 | 4.8 | 0.00 | 0.00 | 0.00 | 45 | 1014.3 |
| 20260504021509 | 12 | 260 | 1.6 | 6.4 | 0.00 | 0.00 | 0.00 | 45 | 1014.3 |
| 20260504021003 | 12 | 257 | 3.2 | 6.4 | 0.00 | 0.00 | 0.00 | 44 | 1014.3 |
| 20260504020504 | 12 | 285 | 1.6 | 4.8 | 0.00 | 0.00 | 0.00 | 45 | 1014.4 |
| 20260504020012 | 12 | 265 | 1.6 | 6.4 | 0.00 | 0.00 | 0.00 | 44 | 1014.3 |
| 20260504015504 | 12 | 259 | 1.6 | 6.4 | 0.00 | 0.00 | 0.00 | 44 | 1014.4 |
| 20260504015005 | 12 | 264 | 1.6 | 8.0 | 0.00 | 0.00 | 0.00 | 43 | 1014.3 |
| 20260504014514 | 12 | 278 | 1.6 | 8.0 | 0.00 | 0.00 | 0.00 | 42 | 1014.3 |
| 20260504014005 | 12 | 269 | 3.2 | 8.0 | 0.00 | 0.00 | 0.00 | 41 | 1014.2 |
| 20260504013508 | 13 | 259 | 4.8 | 8.0 | 0.00 | 0.00 | 0.00 | 41 | 1014.2 |
| 20260504013025 | 13 | 257 | 4.8 | 8.0 | 0.00 | 0.00 | 0.00 | 41 | 1014.1 |
| 20260504012505 | 13 | 255 | 3.2 | 8.0 | 0.00 | 0.00 | 0.00 | 41 | 1014.2 |
| 20260504012006 | 13 | 261 | 3.2 | 8.0 | 0.00 | 0.00 | 0.00 | 40 | 1014.1 |
| 20260504011522 | 13 | 247 | 1.6 | 6.4 | 0.00 | 0.00 | 0.00 | 40 | 1014.0 |
| 20260504011007 | 13 | 264 | 4.8 | 8.0 | 0.00 | 0.00 | 0.00 | 39 | 1014.0 |
| 20260504010506 | 13 | 264 | 3.2 | 8.0 | 0.00 | 0.00 | 0.00 | 39 | 1014.0 |
| 20260504010008 | 13 | 276 | 1.6 | 6.4 | 0.00 | 0.00 | 0.00 | 39 | 1013.8 |
| 20260504005503 | 13 | 273 | 3.2 | 9.7 | 0.00 | 0.00 | 0.00 | 38 | 1013.8 |
| 20260504005006 | 13 | 282 | 3.2 | 9.7 | 0.00 | 0.00 | 0.00 | 38 | 1013.8 |
| 20260504004531 | 13 | 266 | 3.2 | 6.4 | 0.00 | 0.00 | 0.00 | 38 | 1013.8 |
| 20260504004006 | 13 | 259 | 4.8 | 8.0 | 0.00 | 0.00 | 0.00 | 37 | 1013.8 |
| 20260504003505 | 13 | 271 | 3.2 | 8.0 | 0.00 | 0.00 | 0.00 | 38 | 1013.7 |
| 20260504003018 | 13 | 259 | 3.2 | 6.4 | 0.00 | 0.00 | 0.00 | 37 | 1013.7 |
| 20260504002507 | 14 | 278 | 1.6 | 11.3 | 0.00 | 0.00 | 0.00 | 37 | 1013.6 |
| 20260504002006 | 14 | 252 | 1.6 | 11.3 | 0.00 | 0.00 | 0.00 | 36 | 1013.6 |
| 20260504001532 | 14 | 299 | 6.4 | 11.3 | 0.00 | 0.00 | 0.00 | 35 | 1013.6 |
| 20260504001009 | 14 | 278 | 4.8 | 11.3 | 0.00 | 0.00 | 0.00 | 36 | 1013.5 |
| 20260504000509 | 14 | 286 | 6.4 | 11.3 | 0.00 | 0.00 | 0.00 | 35 | 1013.5 |
| 20260504000028 | 15 | 292 | 4.8 | 11.3 | 0.00 | 0.00 | 0.00 | 36 | 1013.4 |
| 20260503235508 | 15 | 264 | 3.2 | 14.5 | 0.00 | 0.00 | 0.00 | 35 | 1013.3 |
| 20260503235008 | 15 | 338 | 4.8 | 19.3 | 0.00 | 0.00 | 0.00 | 35 | 1013.3 |
| 20260503234528 | 15 | 292 | 8.0 | 19.3 | 0.00 | 0.00 | 0.00 | 33 | 1013.2 |
| 20260503234006 | 15 | 288 | 8.0 | 17.7 | 0.00 | 0.00 | 0.00 | 33 | 1013.2 |
| 20260503233504 | 15 | 309 | 6.4 | 19.3 | 0.00 | 0.00 | 0.00 | 34 | 1013.2 |
| 20260503233014 | 15 | 304 | 4.8 | 19.3 | 0.00 | 0.00 | 0.00 | 33 | 1013.1 |
| 20260503232507 | 15 | 311 | 9.7 | 16.1 | 0.00 | 0.00 | 0.00 | 31 | 1013.1 |
| 20260503232008 | 15 | 256 | 4.8 | 17.7 | 0.00 | 0.00 | 0.00 | 32 | 1013.1 |
| 20260503231522 | 15 | 285 | 9.7 | 17.7 | 0.00 | 0.00 | 0.00 | 32 | 1013.1 |
| 20260503231009 | 15 | 289 | 6.4 | 17.7 | 0.00 | 0.00 | 0.00 | 32 | 1013.1 |
| 20260503230508 | 15 | 323 | 9.7 | 20.9 | 0.00 | 0.00 | 0.00 | 32 | 1013.1 |
| 20260503230026 | 15 | 251 | 11.3 | 20.9 | 0.00 | 0.00 | 0.00 | 32 | 1013.1 |
| 20260503225509 | 15 | 299 | 11.3 | 22.5 | 0.00 | 0.00 | 0.00 | 32 | 1013.1 |
| 20260503225006 | 15 | 285 | 12.9 | 25.7 | 0.00 | 0.00 | 0.00 | 31 | 1013.1 |
| 20260503224525 | 15 | 288 | 9.7 | 29.0 | 0.00 | 0.00 | 0.00 | 32 | 1013.1 |
| 20260503224008 | 15 | 271 | 12.9 | 29.0 | 0.00 | 0.00 | 0.00 | 32 | 1013.1 |
| 20260503223512 | 15 | 294 | 14.5 | 24.1 | 0.00 | 0.00 | 0.00 | 32 | 1013.1 |
| 20260503223028 | 15 | 283 | 11.3 | 29.0 | 0.00 | 0.00 | 0.00 | 31 | 1013.1 |
| 20260503222507 | 15 | 284 | 12.9 | 30.6 | 0.00 | 0.00 | 0.00 | 33 | 1013.0 |
| 20260503222007 | 15 | 295 | 17.7 | 30.6 | 0.00 | 0.00 | 0.00 | 32 | 1013.1 |
| 20260503221517 | 15 | 322 | 9.7 | 19.3 | 0.00 | 0.00 | 0.00 | 33 | 1013.0 |
| 20260503221002 | 15 | 273 | 9.7 | 27.4 | 0.00 | 0.00 | 0.00 | 32 | 1012.9 |
| 20260503220502 | 15 | 302 | 12.9 | 27.4 | 0.00 | 0.00 | 0.00 | 32 | 1013.0 |
| 20260503220008 | 15 | 254 | 12.9 | 22.5 | 0.00 | 0.00 | 0.00 | 32 | 1013.1 |
| 20260503215502 | 15 | 293 | 8.0 | 16.1 | 0.00 | 0.00 | 0.00 | 33 | 1013.1 |
| 20260503215003 | 15 | 289 | 8.0 | 22.5 | 0.00 | 0.00 | 0.00 | 32 | 1013.1 |
| 20260503214514 | 15 | 331 | 9.7 | 22.5 | 0.00 | 0.00 | 0.00 | 31 | 1013.2 |